Pula, Croatia

10:50 PM CET on December 13, 2017 (GMT +0100)
Pula

Weather History for LDPL - November, 2012

Change the Weather History Date:

Friday, November 30, 2012

  Actual Average Record
Temperature  
Mean Temperature 44 °F -  
Max Temperature 47 °F - - ()
Min Temperature 42 °F - - ()
Degree Days  
Heating Degree Days 20    
Moisture  
Dew Point 39 °F    
Average Humidity 76    
Maximum Humidity 87    
Minimum Humidity 49    
Precipitation  
Precipitation 0.20 in - - ()
Sea Level Pressure  
Sea Level Pressure 29.51 in    
Wind  
Wind Speed 17 mph ()    
Max Wind Speed 29 mph    
Max Gust Speed 39 mph    
Visibility 8.7 miles    
Events Rain    
T = Trace of Precipitation, MM = Missing Value Source: Averaged Metar Reports

Daily Weather History Graph

Daily Weather History Graph

Search for Another Location

Airport or City:

Trip Planner

Search our weather history database for the weather conditions in past years. The results will help you decide how hot, cold, wet, or windy it might be!

Date:

Astronomy

Nov. 30, 2012 Rise Set
Actual Time 7:21 AM CET 4:24 PM CET
Civil Twilight 6:48 AM CET 4:57 PM CET
Nautical Twilight 6:11 AM CET 5:34 PM CET
Astronomical Twilight 5:36 AM CET 6:09 PM CET
Moon 6:04 PM CET (11/30) 8:40 AM CET (11/30)
Length of Visible Light 10h 09m
Length of Day
9h 03m
Full, 97% of the Moon is Illuminated
Nov 30
Full
Dec 6
Last Quarter
Dec 13
New
Dec 20
First Quarter
Dec 28
Full

Hourly Weather History & Observations

Time (CET) Temp. Windchill Dew Point Humidity Pressure Visibility Wind Dir Wind Speed Gust Speed Precip Events Conditions
12:00 AM 48.2 °F - 44.6 °F 87% 29.30 in 6.2 mi ENE 13.8 mph - N/A   Partly Cloudy
12:30 AM 48.2 °F - 44.6 °F 87% 29.30 in 6.2 mi ENE 16.1 mph - N/A   Partly Cloudy
1:00 AM 49 °F - 44 °F 78% 29.32 in 19 mi ENE 15.7 mph - -   Partly Cloudy
1:00 AM 48.2 °F - 44.6 °F 87% 29.30 in 6.2 mi ENE 15.0 mph - N/A   Scattered Clouds
1:30 AM 48.2 °F - 42.8 °F 82% 29.33 in 6.2 mi ENE 12.7 mph - N/A   Mostly Cloudy
2:00 AM 48.2 °F - 42.8 °F 82% 29.36 in 6.2 mi ENE 12.7 mph - N/A Rain Light Rain
2:30 AM 46.4 °F 40.1 °F 41.0 °F 81% 29.36 in 6.2 mi ENE 15.0 mph - N/A Rain Light Rain
3:00 AM 46.4 °F 39.5 °F 41.0 °F 81% 29.36 in 6.2 mi ENE 17.3 mph - N/A Rain Light Rain
3:30 AM 46.4 °F 39.5 °F 41.0 °F 81% 29.33 in 6.2 mi ENE 17.3 mph - N/A   Scattered Clouds
4:00 AM 47 °F - 40 °F 68% 29.37 in 19 mi ENE 15.7 mph - - Rain Light Rain
4:00 AM 46.4 °F 39.8 °F 39.2 °F 76% 29.36 in 6.2 mi ENE 16.1 mph - N/A   Scattered Clouds
4:30 AM 48.2 °F - 39.2 °F 71% 29.36 in 6.2 mi ENE 18.4 mph - N/A   Mostly Cloudy
5:00 AM 46 °F - 40 °F 74% 29.39 in 16 mi ENE 20.1 mph - - Rain Light Rain
5:00 AM 46.4 °F 38.7 °F 41.0 °F 81% 29.36 in 6.2 mi ENE 20.7 mph 32.2 mph N/A Rain Light Rain
5:30 AM 46.4 °F 39.2 °F 41.0 °F 81% 29.39 in 6.2 mi ENE 18.4 mph - N/A Rain Light Rain
6:00 AM 47 °F - 42 °F 76% 29.41 in 16 mi ENE 17.9 mph - - Rain Light Rain
6:00 AM 46.4 °F 39.5 °F 41.0 °F 81% 29.39 in 6.2 mi ENE 17.3 mph - N/A Rain Light Rain
6:30 AM 46.4 °F 38.1 °F 39.2 °F 76% 29.39 in 6.2 mi ENE 24.2 mph - N/A Rain Light Rain
7:00 AM 46 °F - 39 °F 69% 29.43 in 19 mi ENE 29.1 mph - - Rain Light Rain
7:00 AM 46.4 °F 37.4 °F 39.2 °F 76% 29.42 in 6.2 mi ENE 28.8 mph - N/A Rain Light Rain
7:30 AM 44.6 °F 36.4 °F 39.2 °F 81% 29.42 in 6.2 mi ENE 20.7 mph - N/A Rain Light Rain
8:00 AM 64 °F - 50 °F 49% 29.45 in 19 mi ENE 24.6 mph - - Rain Light Rain
8:00 AM 46.4 °F 38.1 °F 39.2 °F 76% 29.44 in 6.2 mi ENE 24.2 mph 35.7 mph N/A Rain Light Rain
8:30 AM 44.6 °F 35.7 °F 39.2 °F 81% 29.44 in 6.2 mi ENE 24.2 mph 36.8 mph N/A Rain Light Rain
9:00 AM 45 °F - 38 °F 68% 29.49 in 19 mi ENE 26.8 mph - - Rain Light Rain
9:00 AM 44.6 °F 35.7 °F 37.4 °F 76% 29.47 in 6.2 mi ENE 24.2 mph 36.8 mph N/A Rain Light Rain
9:30 AM 46.4 °F 37.9 °F 37.4 °F 71% 29.47 in 6.2 mi ENE 25.3 mph - N/A   Mostly Cloudy
10:00 AM 47 °F - 36 °F 57% 29.50 in 19 mi ENE 26.8 mph - - Rain Light Rain
10:00 AM 46.4 °F 37.7 °F 37.4 °F 71% 29.47 in 6.2 mi ENE 26.5 mph 39.1 mph N/A   Scattered Clouds
10:30 AM 46.4 °F 37.7 °F 37.4 °F 71% 29.50 in 6.2 mi ENE 26.5 mph 39.1 mph N/A   Mostly Cloudy
11:00 AM 47 °F - 37 °F 59% 29.52 in 19 mi ENE 29.1 mph - -   Mostly Cloudy
11:00 AM 46.4 °F 37.4 °F 37.4 °F 71% 29.50 in 6.2 mi ENE 28.8 mph - N/A   Mostly Cloudy
11:30 AM 48.2 °F - 37.4 °F 66% 29.50 in 6.2 mi ENE 24.2 mph 35.7 mph N/A   Mostly Cloudy
12:00 PM 46 °F - 39 °F 68% 29.54 in 6 mi ENE 22.4 mph - - Rain Rain
12:00 PM 46.4 °F 38.7 °F 39.2 °F 76% 29.50 in 6.2 mi ENE 20.7 mph - N/A Rain Rain
12:30 PM 46.4 °F 39.8 °F 39.2 °F 76% 29.53 in 6.2 mi ENE 16.1 mph - N/A Rain Light Rain
1:00 PM 46 °F - 40 °F 74% 29.56 in 8 mi East 13.4 mph - - Rain Light Rain
1:00 PM 46.4 °F 40.4 °F 41.0 °F 81% 29.53 in 6.2 mi East 13.8 mph - N/A Rain Light Rain
1:30 PM 46.4 °F 39.8 °F 41.0 °F 81% 29.56 in 6.2 mi ENE 16.1 mph - N/A Rain Light Rain
2:00 PM 44.6 °F 37.2 °F 41.0 °F 87% 29.56 in 6.2 mi East 17.3 mph - N/A Rain Light Rain
2:30 PM 44.6 °F 36.1 °F 39.2 °F 81% 29.56 in 6.2 mi East 21.9 mph - N/A   Mostly Cloudy
3:00 PM 45 °F - 39 °F 74% 29.58 in 16 mi ENE 22.4 mph - - Rain Light Rain
3:00 PM 44.6 °F 35.9 °F 39.2 °F 81% 29.56 in 6.2 mi ENE 23.0 mph - N/A Rain Light Rain
3:30 PM 44.6 °F 36.4 °F 39.2 °F 81% 29.56 in 6.2 mi ENE 20.7 mph 32.2 mph N/A   Mostly Cloudy
4:00 PM 44 °F - 39 °F 76% 29.60 in 19 mi ENE 15.7 mph - - Rain Light Rain
4:00 PM 44.6 °F 37.4 °F 39.2 °F 81% 29.56 in 6.2 mi ENE 16.1 mph - N/A   Mostly Cloudy
4:30 PM 44.6 °F 37.4 °F 39.2 °F 81% 29.59 in 6.2 mi ENE 16.1 mph - N/A   Mostly Cloudy
5:00 PM 43 °F - 38 °F 77% 29.62 in 19 mi ENE 17.9 mph - -   Partly Cloudy
5:00 PM 42.8 °F 34.8 °F 37.4 °F 81% 29.59 in 6.2 mi ENE 17.3 mph - N/A   Scattered Clouds
5:30 PM 42.8 °F 35.1 °F 37.4 °F 81% 29.59 in 6.2 mi ENE 16.1 mph - N/A   Partly Cloudy
6:00 PM 42 °F - 37 °F 76% 29.64 in 22 mi East 13.4 mph - -   Scattered Clouds
6:00 PM 42.8 °F 36.2 °F 37.4 °F 81% 29.62 in 6.2 mi East 12.7 mph - N/A   Partly Cloudy
6:30 PM 42.8 °F 35.8 °F 37.4 °F 81% 29.62 in - East 13.8 mph - N/A   Clear
7:00 PM 42 °F - 36 °F 74% 29.65 in 25 mi ENE 13.4 mph - -   Partly Cloudy
7:00 PM 42.8 °F 35.8 °F 37.4 °F 81% 29.62 in - ENE 13.8 mph - N/A   Clear
7:30 PM 42.8 °F 35.8 °F 37.4 °F 81% 29.62 in - ENE 13.8 mph - N/A   Clear
8:00 PM 42.8 °F 36.2 °F 37.4 °F 81% 29.62 in - ENE 12.7 mph - N/A   Clear
8:30 PM 44.6 °F 38.4 °F 37.4 °F 76% 29.65 in 6.2 mi ENE 12.7 mph - N/A   Partly Cloudy
9:00 PM 44.6 °F 38.8 °F 37.4 °F 76% 29.65 in 6.2 mi ENE 11.5 mph - N/A   Partly Cloudy
9:30 PM 46.4 °F 40.7 °F 37.4 °F 71% 29.68 in 6.2 mi ENE 12.7 mph - N/A   Scattered Clouds
10:00 PM 46 °F - 37 °F 62% 29.70 in 25 mi ENE 11.2 mph - -   Partly Cloudy
10:00 PM 46.4 °F 41.1 °F 37.4 °F 71% 29.68 in 6.2 mi ENE 11.5 mph - N/A   Scattered Clouds
10:30 PM 46.4 °F 40.4 °F 37.4 °F 71% 29.68 in 6.2 mi East 13.8 mph - N/A   Mostly Cloudy
11:00 PM 46.4 °F 40.7 °F 37.4 °F 71% 29.71 in 6.2 mi ENE 12.7 mph - N/A   Mostly Cloudy
11:30 PM 46.4 °F 40.4 °F 37.4 °F 71% 29.71 in 6.2 mi East 13.8 mph - N/A   Mostly Cloudy